Tracking 19176 objects as of 28-May-2018
HD Live streaming from Space Station
objects crossing your sky now

SL-12 R/B(2)

Track SL-12 R/B(2) now!


NORAD ID: 37140
Int'l Code: 2010-041D
Perigee: 19,028.4 km
Apogee: 19,189.5 km
Inclination: 64.5 °
Period: 674.6 minutes
Semi major axis: 25479 km
RCS: 0.5114 m2 (medium)
Launch date: September 2, 2010
Source: Commonwealth of Independent States (former USSR) (CIS)
Launch site: TYURATAM MISSILE AND SPACE COMPLEX (TTMTR)

Note: This is a ROCKET BODY
aabbcc
Your satellite tracking list
Your tracking list is empty




NASA's NSSDC Master Catalog

Two Line Element Set (TLE):
1 37140U 10041D   18147.70581966 -.00000060  00000-0  00000+0 0  9990
2 37140  64.4964 291.6404 0031613 188.7496 200.6587  2.13454208 60297
Source of the keplerian elements: AFSPC